Starlink 34325

operational
NORAD ID: 64262 Int'l Des: 2025-120 Owner: SPXS Country: US Constellation: starlink
LEOCIRCULAR

About Starlink 34325

Description loading...

Live Position

Loading 3D Globe...

Upcoming Passes

Altitude History

Altitude vs Time

uPlot chart will show altitude changes over time

Two-Line Element Set

1 64262U 25120G 25260.22015558 .00030981 00000-0 10541-2 0 9997
2 64262 53.1596 202.6923 0001556 83.4159 276.7019 15.30191450 17359
Epoch: Sep 17, 2025 • Age: 43 hours

Current Status

Altitude 488.9 km
Velocity 7.62 km/s
Sub-Earth Point -39.87°S, 45.31°E
Launch Date Jun 4, 2025
Age 0.2 years
Type internet

Technical Details

Classification Payload
Mass 575.00 kg
Dry Mass 530.00 kg
Total Mass 575.00 kg
Length 0.30 m
Diameter 4.10 m
Span 29.00 m
Shape Box + pan
Manufacturer SPXS
Bus Type Starlink V2MO
Phase Status In Orbit
Owner/State SPXS/US

Large Constellations

Loading constellations...